This is the latest recevied weather packets stored in our database for station/object K7OWW-2. If no packets are shown the sender has not sent any weather packets the latest 10 day(s).
| Time | Temp. | Humidity | Pressure | Rain* | Wind** | Luminosity | Snow |
|---|---|---|---|---|---|---|---|
| 1787528351 | 25.56° C | 27% | 1015.2 hPa | 0 mm | - | - | - |
| 1787527750 | 26.11° C | 26% | 1015.3 hPa | 0 mm | - | - | - |
| 1787527151 | 26.11° C | 26% | 1015.4 hPa | 0 mm | - | - | - |
| 1787526853 | 26.11° C | 26% | 1015.3 hPa | 0 mm | - | - | - |
| 1787526551 | 26.11° C | 26% | 1015.4 hPa | 0 mm | - | - | - |
| 1787525951 | 26.11° C | 26% | 1015.5 hPa | 0 mm | - | - | - |
| 1787525351 | 26.67° C | 26% | 1015.6 hPa | 0 mm | - | - | - |
| 1787525053 | 26.67° C | 25% | 1015.6 hPa | 0 mm | - | - | - |
| 1787524751 | 26.67° C | 26% | 1015.6 hPa | 0 mm | - | - | - |
| 1787524151 | 26.11° C | 25% | 1015.6 hPa | 0 mm | - | - | - |
| 1787523551 | 25.56° C | 26% | 1015.9 hPa | 0 mm | - | - | - |
| 1787523253 | 25.56° C | 25% | 1015.7 hPa | 0 mm | - | - | - |
| 1787522951 | 26.11° C | 25% | 1015.9 hPa | 0 mm | - | - | - |
| 1787522351 | 25.56° C | 26% | 1015.9 hPa | 0 mm | - | - | - |
| 1787521751 | 25.56° C | 25% | 1016.2 hPa | 0 mm | - | - | - |
| 1787521453 | 25.56° C | 26% | 1016.2 hPa | 0 mm | - | - | - |
| 1787521151 | 25.56° C | 25% | 1016.2 hPa | 0 mm | - | - | - |
| 1787520553 | 25.56° C | 24% | 1016.3 hPa | 0 mm | - | - | - |
| 1787519951 | 25.56° C | 26% | 1016.3 hPa | 0 mm | - | - | - |
| 1787519653 | 25.56° C | 27% | 1016.3 hPa | 0 mm | - | - | - |
| 1787519351 | 25.56° C | 28% | 1016.3 hPa | 0 mm | - | - | - |
| 1787518751 | 25° C | 26% | 1016.4 hPa | 0 mm | - | - | - |
| 1787518151 | 25° C | 26% | 1016.4 hPa | 0 mm | - | - | - |
| 1787517853 | 24.44° C | 26% | 1016.5 hPa | 0 mm | - | - | - |
| 1787517551 | 24.44° C | 26% | 1016.6 hPa | 0 mm | - | - | - |
* Rain latest hour (hover to see other rain measurements)
** Current wind speed in m/s (hover to see current wind gust speed)